Time,TemperatureF,DewpointF,PressureIn,WindDirection,WindDirectionDegrees,WindSpeedMPH,WindSpeedGustMPH,Humidity,HourlyPrecipIn,Conditions,Clouds,dailyrainin,SoftwareType,DateUTC
2013-02-03 00:04:00,19.0,14.7,30.03,WNW,292,0.0,3.0,83,0.00,,,0.00,Weather View 32 v70,2013-02-03 05:04:00,
2013-02-03 00:09:00,19.0,15.0,30.03,WNW,292,0.0,3.0,84,0.00,,,0.00,Weather View 32 v70,2013-02-03 05:09:00,
2013-02-03 00:14:00,19.0,15.0,30.02,WNW,292,0.0,3.0,84,0.00,,,0.00,Weather View 32 v70,2013-02-03 05:14:00,
2013-02-03 00:19:00,19.0,15.0,30.03,SW,225,0.0,3.0,84,0.00,,,0.00,Weather View 32 v70,2013-02-03 05:19:00,
2013-02-03 00:24:00,19.0,15.0,30.03,West,270,0.0,3.0,84,0.00,,,0.00,Weather View 32 v70,2013-02-03 05:24:00,
2013-02-03 00:34:00,19.0,15.2,30.03,SSE,158,1.0,3.0,85,0.00,,,0.00,Weather View 32 v70,2013-02-03 05:34:00,
2013-02-03 00:39:00,19.0,15.2,30.03,West,270,0.0,3.0,85,0.00,,,0.00,Weather View 32 v70,2013-02-03 05:39:00,
2013-02-03 00:49:00,19.0,15.2,30.03,WSW,248,0.0,2.0,85,0.00,,,0.00,Weather View 32 v70,2013-02-03 05:49:00,
2013-02-03 00:54:00,19.0,15.2,30.03,SSW,202,0.0,2.0,85,0.00,,,0.00,Weather View 32 v70,2013-02-03 05:54:00,
2013-02-03 01:04:00,19.0,15.2,30.02,SW,225,0.0,2.0,85,0.00,,,0.00,Weather View 32 v70,2013-02-03 06:04:00,
2013-02-03 01:09:00,19.0,15.2,30.02,SSW,202,0.0,2.0,85,0.00,,,0.00,Weather View 32 v70,2013-02-03 06:09:00,
2013-02-03 01:19:00,19.0,15.2,30.02,South,180,0.0,2.0,85,0.00,,,0.00,Weather View 32 v70,2013-02-03 06:19:00,
2013-02-03 01:29:00,19.0,15.5,30.02,SSW,202,0.0,2.0,86,0.00,,,0.00,Weather View 32 v70,2013-02-03 06:29:00,
2013-02-03 01:39:00,19.0,15.5,30.02,WNW,292,0.0,2.0,86,0.00,,,0.00,Weather View 32 v70,2013-02-03 06:39:00,
2013-02-03 01:44:00,19.0,15.5,30.02,WNW,292,0.0,2.0,86,0.00,,,0.00,Weather View 32 v70,2013-02-03 06:44:00,
2013-02-03 01:54:00,19.0,15.5,30.02,WSW,248,0.0,2.0,86,0.00,,,0.00,Weather View 32 v70,2013-02-03 06:54:00,
2013-02-03 01:59:00,19.0,15.5,30.03,SSW,202,0.0,2.0,86,0.00,,,0.00,Weather View 32 v70,2013-02-03 06:59:00,
2013-02-03 02:09:00,19.0,15.5,30.02,West,270,0.0,2.0,86,0.00,,,0.00,Weather View 32 v70,2013-02-03 07:09:00,
2013-02-03 02:19:00,19.0,15.8,30.01,WNW,292,0.0,1.0,87,0.00,,,0.00,Weather View 32 v70,2013-02-03 07:19:00,
2013-02-03 02:29:00,19.0,15.8,30.01,SSE,158,0.0,1.0,87,0.00,,,0.00,Weather View 32 v70,2013-02-03 07:29:00,
2013-02-03 02:39:00,19.0,15.8,30.01,West,270,0.0,1.0,87,0.00,,,0.00,Weather View 32 v70,2013-02-03 07:39:00,
2013-02-03 02:49:00,19.0,16.0,30.01,WSW,248,1.0,1.0,88,0.00,,,0.00,Weather View 32 v70,2013-02-03 07:49:00,
2013-02-03 02:54:00,19.0,16.0,30.01,SW,225,0.0,3.0,88,0.00,,,0.00,Weather View 32 v70,2013-02-03 07:54:00,
2013-02-03 03:04:00,19.0,16.0,30.00,South,180,1.0,3.0,88,0.00,,,0.00,Weather View 32 v70,2013-02-03 08:04:00,
2013-02-03 03:09:00,19.0,16.0,30.00,SW,225,0.0,3.0,88,0.00,,,0.00,Weather View 32 v70,2013-02-03 08:09:00,
2013-02-03 03:19:00,19.0,16.0,30.00,WNW,292,0.0,3.0,88,0.00,,,0.00,Weather View 32 v70,2013-02-03 08:19:00,
2013-02-03 03:29:00,18.0,15.1,30.00,WSW,248,0.0,3.0,88,0.00,,,0.00,Weather View 32 v70,2013-02-03 08:29:00,
2013-02-03 03:39:00,18.0,15.3,29.99,SE,135,0.0,3.0,89,0.00,,,0.00,Weather View 32 v70,2013-02-03 08:39:00,
2013-02-03 03:44:00,18.0,15.3,30.00,West,270,0.0,3.0,89,0.00,,,0.00,Weather View 32 v70,2013-02-03 08:44:00,
2013-02-03 03:54:00,18.0,15.3,29.99,WNW,292,0.0,3.0,89,0.00,,,0.00,Weather View 32 v70,2013-02-03 08:54:00,
2013-02-03 04:04:00,18.0,15.6,29.99,WSW,248,0.0,1.0,90,0.00,,,0.00,Weather View 32 v70,2013-02-03 09:04:00,
2013-02-03 04:14:00,17.0,14.6,29.99,WNW,292,0.0,0.0,90,0.00,,,0.00,Weather View 32 v70,2013-02-03 09:14:00,
2013-02-03 04:19:00,17.0,14.6,29.99,South,180,0.0,0.0,90,0.00,,,0.00,Weather View 32 v70,2013-02-03 09:19:00,
2013-02-03 04:29:00,17.0,14.6,29.98,WSW,248,0.0,0.0,90,0.00,,,0.00,Weather View 32 v70,2013-02-03 09:29:00,
2013-02-03 04:39:00,17.0,14.8,29.98,West,270,0.0,0.0,91,0.00,,,0.00,Weather View 32 v70,2013-02-03 09:39:00,
2013-02-03 04:49:00,17.0,14.8,29.98,SW,225,0.0,0.0,91,0.00,,,0.00,Weather View 32 v70,2013-02-03 09:49:00,
2013-02-03 04:54:00,17.0,14.8,29.97,SSE,158,1.0,1.0,91,0.00,,,0.00,Weather View 32 v70,2013-02-03 09:54:00,
2013-02-03 05:04:00,17.0,14.8,29.98,WNW,292,0.0,1.0,91,0.00,,,0.00,Weather View 32 v70,2013-02-03 10:04:00,
2013-02-03 05:09:00,17.0,15.1,29.98,WSW,248,0.0,1.0,92,0.00,,,0.00,Weather View 32 v70,2013-02-03 10:09:00,
2013-02-03 05:19:00,16.0,14.1,29.97,West,270,0.0,1.0,92,0.00,,,0.00,Weather View 32 v70,2013-02-03 10:19:00,
2013-02-03 05:29:00,16.0,14.1,29.98,WNW,292,0.0,1.0,92,0.00,,,0.00,Weather View 32 v70,2013-02-03 10:29:00,
2013-02-03 05:34:00,16.0,14.3,29.98,West,270,0.0,1.0,93,0.00,,,0.00,Weather View 32 v70,2013-02-03 10:34:00,
2013-02-03 05:39:00,16.0,14.3,29.97,WNW,292,0.0,1.0,93,0.00,,,0.00,Weather View 32 v70,2013-02-03 10:39:00,
2013-02-03 05:45:00,16.0,14.3,29.97,WSW,248,0.0,1.0,93,0.00,,,0.00,Weather View 32 v70,2013-02-03 10:45:00,
2013-02-03 05:54:00,15.0,13.6,29.97,WNW,292,0.0,1.0,94,0.00,,,0.00,Weather View 32 v70,2013-02-03 10:54:00,
2013-02-03 05:59:00,15.0,13.6,29.97,WNW,292,0.0,1.0,94,0.00,,,0.00,Weather View 32 v70,2013-02-03 10:59:00,
2013-02-03 06:09:00,15.0,13.8,29.98,West,270,0.0,1.0,95,0.00,,,0.00,Weather View 32 v70,2013-02-03 11:09:00,
2013-02-03 06:14:00,15.0,13.8,29.97,West,270,0.0,1.0,95,0.00,,,0.00,Weather View 32 v70,2013-02-03 11:14:00,
2013-02-03 06:19:00,15.0,13.8,29.98,WNW,292,1.0,1.0,95,0.00,,,0.00,Weather View 32 v70,2013-02-03 11:19:00,
2013-02-03 06:24:00,15.0,13.8,29.98,WNW,292,0.0,2.0,95,0.00,,,0.00,Weather View 32 v70,2013-02-03 11:24:00,
2013-02-03 06:34:00,15.0,13.8,29.97,WNW,292,0.0,2.0,95,0.00,,,0.00,Weather View 32 v70,2013-02-03 11:34:00,
2013-02-03 06:39:00,15.0,13.8,29.98,WNW,292,0.0,2.0,95,0.00,,,0.00,Weather View 32 v70,2013-02-03 11:39:00,
2013-02-03 06:44:00,16.0,14.8,29.98,WNW,292,0.0,2.0,95,0.00,,,0.00,Weather View 32 v70,2013-02-03 11:44:00,
2013-02-03 06:54:00,16.0,14.8,29.98,WSW,248,1.0,2.0,95,0.00,,,0.00,Weather View 32 v70,2013-02-03 11:54:00,
2013-02-03 07:04:00,16.0,14.8,29.98,WNW,292,0.0,2.0,95,0.00,,,0.00,Weather View 32 v70,2013-02-03 12:04:00,
2013-02-03 07:14:00,15.0,13.8,29.98,West,270,0.0,2.0,95,0.00,,,0.00,Weather View 32 v70,2013-02-03 12:14:00,
2013-02-03 07:24:00,15.0,13.8,29.97,WSW,248,0.0,2.0,95,0.00,,,0.00,Weather View 32 v70,2013-02-03 12:24:00,
2013-02-03 07:29:00,15.0,13.8,29.97,WNW,292,0.0,2.0,95,0.00,,,0.00,Weather View 32 v70,2013-02-03 12:29:00,
2013-02-03 07:39:00,15.0,14.1,29.97,West,270,1.0,3.0,96,0.00,,,0.00,Weather View 32 v70,2013-02-03 12:39:00,
2013-02-03 07:46:00,15.0,14.1,29.97,WNW,292,0.0,3.0,96,0.00,,,0.00,Weather View 32 v70,2013-02-03 12:46:00,
2013-02-03 07:54:00,15.0,14.1,29.97,WNW,292,2.0,3.0,96,0.00,,,0.00,Weather View 32 v70,2013-02-03 12:54:00,
2013-02-03 07:59:00,15.0,14.1,29.97,WNW,292,2.0,3.0,96,0.00,,,0.00,Weather View 32 v70,2013-02-03 12:59:00,
2013-02-03 08:04:00,16.0,14.8,29.97,West,270,2.0,3.0,95,0.00,,,0.00,Weather View 32 v70,2013-02-03 13:04:00,
2013-02-03 08:14:00,16.0,14.8,29.97,South,180,1.0,5.0,95,0.00,,,0.00,Weather View 32 v70,2013-02-03 13:14:00,
2013-02-03 08:24:00,16.0,14.6,29.97,WSW,248,1.0,5.0,94,0.00,,,0.00,Weather View 32 v70,2013-02-03 13:24:00,
2013-02-03 08:29:00,16.0,14.3,29.97,SW,225,1.0,5.0,93,0.00,,,0.00,Weather View 32 v70,2013-02-03 13:29:00,
2013-02-03 08:39:00,17.0,15.3,29.98,WSW,248,1.0,5.0,93,0.00,,,0.00,Weather View 32 v70,2013-02-03 13:39:00,
2013-02-03 08:46:00,17.0,15.1,29.97,SE,135,1.0,5.0,92,0.00,,,0.00,Weather View 32 v70,2013-02-03 13:46:00,
2013-02-03 08:54:00,17.0,14.8,29.97,WSW,248,2.0,5.0,91,0.00,,,0.00,Weather View 32 v70,2013-02-03 13:54:00,
2013-02-03 09:04:00,18.0,15.6,29.97,SSE,158,0.0,5.0,90,0.00,,,0.00,Weather View 32 v70,2013-02-03 14:04:00,
2013-02-03 09:09:00,18.0,15.3,29.97,SW,225,1.0,5.0,89,0.00,,,0.00,Weather View 32 v70,2013-02-03 14:09:00,
2013-02-03 09:19:00,18.0,15.1,29.97,WSW,248,3.0,5.0,88,0.00,,,0.00,Weather View 32 v70,2013-02-03 14:19:00,
2013-02-03 09:29:00,19.0,15.5,29.97,SW,225,1.0,5.0,86,0.00,,,0.00,Weather View 32 v70,2013-02-03 14:29:00,
2013-02-03 09:34:00,19.0,15.2,29.97,WSW,248,2.0,5.0,85,0.00,,,0.00,Weather View 32 v70,2013-02-03 14:34:00,
2013-02-03 09:39:00,19.0,14.7,29.96,West,270,4.0,5.0,83,0.00,,,0.00,Weather View 32 v70,2013-02-03 14:39:00,
2013-02-03 09:47:00,19.0,14.4,29.96,SSW,202,1.0,5.0,82,0.00,,,0.00,Weather View 32 v70,2013-02-03 14:47:00,
2013-02-03 09:54:00,20.0,15.1,29.95,SSE,158,1.0,5.0,81,0.00,,,0.00,Weather View 32 v70,2013-02-03 14:54:00,
2013-02-03 10:04:00,20.0,14.8,29.96,WNW,292,3.0,6.0,80,0.00,,,0.00,Weather View 32 v70,2013-02-03 15:04:00,
2013-02-03 10:09:00,20.0,14.5,29.96,SW,225,0.0,6.0,79,0.00,,,0.00,Weather View 32 v70,2013-02-03 15:09:00,
2013-02-03 10:19:00,21.0,15.2,29.96,WNW,292,1.0,6.0,78,0.00,,,0.00,Weather View 32 v70,2013-02-03 15:19:00,
2013-02-03 10:29:00,21.0,14.6,29.96,South,180,1.0,8.0,76,0.00,,,0.00,Weather View 32 v70,2013-02-03 15:29:00,
2013-02-03 10:34:00,21.0,14.6,29.95,SSW,202,2.0,8.0,76,0.00,,,0.00,Weather View 32 v70,2013-02-03 15:34:00,
2013-02-03 10:39:00,22.0,15.3,29.95,SSE,158,1.0,8.0,75,0.00,,,0.00,Weather View 32 v70,2013-02-03 15:39:00,
2013-02-03 10:48:00,22.0,15.3,29.95,SSE,158,1.0,8.0,75,0.00,,,0.00,Weather View 32 v70,2013-02-03 15:48:00,
2013-02-03 10:54:00,22.0,14.7,29.94,SSW,202,1.0,8.0,73,0.00,,,0.00,Weather View 32 v70,2013-02-03 15:54:00,
2013-02-03 11:04:00,22.0,14.7,29.93,SE,135,1.0,8.0,73,0.00,,,0.00,Weather View 32 v70,2013-02-03 16:04:00,
2013-02-03 11:14:00,22.0,14.0,29.93,South,180,3.0,8.0,71,0.00,,,0.00,Weather View 32 v70,2013-02-03 16:14:00,
2013-02-03 11:19:00,22.0,14.0,29.92,SSE,158,1.0,8.0,71,0.00,,,0.00,Weather View 32 v70,2013-02-03 16:19:00,
2013-02-03 11:29:00,23.0,14.7,29.92,WSW,248,1.0,6.0,70,0.00,,,0.00,Weather View 32 v70,2013-02-03 16:29:00,
2013-02-03 11:34:00,24.0,15.6,29.91,SE,135,5.0,6.0,70,0.00,,,0.00,Weather View 32 v70,2013-02-03 16:34:00,
2013-02-03 11:39:00,23.0,13.3,29.91,SSE,158,5.0,6.0,66,0.00,,,0.00,Weather View 32 v70,2013-02-03 16:39:00,
2013-02-03 11:48:00,23.0,13.7,29.91,WSW,248,1.0,6.0,67,0.00,,,0.00,Weather View 32 v70,2013-02-03 16:48:00,
2013-02-03 11:54:00,23.0,13.7,29.90,SE,135,1.0,6.0,67,0.00,,,0.00,Weather View 32 v70,2013-02-03 16:54:00,
2013-02-03 11:59:00,24.0,14.6,29.90,SSE,158,1.0,6.0,67,0.00,,,0.00,Weather View 32 v70,2013-02-03 16:59:00,
2013-02-03 12:09:00,23.0,13.7,29.88,WSW,248,1.0,6.0,67,0.00,,,0.00,Weather View 32 v70,2013-02-03 17:09:00,
2013-02-03 12:19:00,24.0,14.3,29.89,SSE,158,2.0,6.0,66,0.00,,,0.00,Weather View 32 v70,2013-02-03 17:19:00,
2013-02-03 12:29:00,24.0,14.3,29.87,SE,135,1.0,6.0,66,0.00,,,0.00,Weather View 32 v70,2013-02-03 17:29:00,
2013-02-03 12:39:00,24.0,14.3,29.86,SSW,202,2.0,6.0,66,0.00,,,0.00,Weather View 32 v70,2013-02-03 17:39:00,
2013-02-03 12:44:00,24.0,14.3,29.87,SSE,158,3.0,6.0,66,0.00,,,0.00,Weather View 32 v70,2013-02-03 17:44:00,
2013-02-03 12:54:00,24.0,14.3,29.86,SSE,158,3.0,7.0,66,0.00,,,0.00,Weather View 32 v70,2013-02-03 17:54:00,
2013-02-03 12:59:00,24.0,14.6,29.86,SSE,158,1.0,7.0,67,0.00,,,0.00,Weather View 32 v70,2013-02-03 17:59:00,
2013-02-03 13:09:00,24.0,14.3,29.84,SSW,202,2.0,8.0,66,0.00,,,0.00,Weather View 32 v70,2013-02-03 18:09:00,
2013-02-03 13:19:00,25.0,14.9,29.84,SE,135,2.0,8.0,65,0.00,,,0.00,Weather View 32 v70,2013-02-03 18:19:00,
2013-02-03 13:24:00,24.0,14.3,29.83,South,180,3.0,8.0,66,0.00,,,0.00,Weather View 32 v70,2013-02-03 18:24:00,
2013-02-03 13:29:00,24.0,13.9,29.83,WNW,292,2.0,8.0,65,0.00,,,0.00,Weather View 32 v70,2013-02-03 18:29:00,
2013-02-03 13:39:00,25.0,14.9,29.83,South,180,3.0,8.0,65,0.00,,,0.00,Weather View 32 v70,2013-02-03 18:39:00,
2013-02-03 13:49:00,25.0,14.9,29.82,SSE,158,2.0,8.0,65,0.00,,,0.00,Weather View 32 v70,2013-02-03 18:49:00,
2013-02-03 13:59:00,25.0,14.5,29.82,South,180,1.0,8.0,64,0.00,,,0.00,Weather View 32 v70,2013-02-03 18:59:00,
2013-02-03 14:09:00,25.0,14.5,29.82,SE,135,2.0,5.0,64,0.00,,,0.00,Weather View 32 v70,2013-02-03 19:09:00,
2013-02-03 14:14:00,25.0,14.5,29.82,West,270,1.0,5.0,64,0.00,,,0.00,Weather View 32 v70,2013-02-03 19:14:00,
2013-02-03 14:24:00,25.0,14.9,29.82,South,180,2.0,5.0,65,0.00,,,0.00,Weather View 32 v70,2013-02-03 19:24:00,
2013-02-03 14:29:00,25.0,14.9,29.82,South,180,3.0,5.0,65,0.00,,,0.00,Weather View 32 v70,2013-02-03 19:29:00,
2013-02-03 14:34:00,26.0,15.8,29.81,South,180,1.0,5.0,65,0.00,,,0.00,Weather View 32 v70,2013-02-03 19:34:00,
2013-02-03 14:39:00,25.0,14.5,29.81,SSE,158,1.0,5.0,64,0.00,,,0.00,Weather View 32 v70,2013-02-03 19:39:00,
2013-02-03 14:49:00,25.0,14.5,29.81,SSE,158,1.0,6.0,64,0.00,,,0.00,Weather View 32 v70,2013-02-03 19:49:00,
2013-02-03 14:54:00,26.0,15.5,29.82,SE,135,1.0,6.0,64,0.00,,,0.00,Weather View 32 v70,2013-02-03 19:54:00,
2013-02-03 15:04:00,25.0,14.2,29.81,SE,135,1.0,6.0,63,0.00,,,0.00,Weather View 32 v70,2013-02-03 20:04:00,
2013-02-03 15:09:00,25.0,14.9,29.81,SW,225,0.0,6.0,65,0.00,,,0.00,Weather View 32 v70,2013-02-03 20:09:00,
2013-02-03 15:19:00,25.0,14.9,29.80,SSE,158,1.0,6.0,65,0.00,,,0.00,Weather View 32 v70,2013-02-03 20:19:00,
2013-02-03 15:24:00,25.0,14.9,29.80,SSE,158,1.0,6.0,65,0.00,,,0.00,Weather View 32 v70,2013-02-03 20:24:00,
2013-02-03 15:34:00,25.0,14.9,29.81,SSE,158,1.0,6.0,65,0.00,,,0.00,Weather View 32 v70,2013-02-03 20:34:00,
2013-02-03 15:44:00,25.0,15.2,29.81,SSE,158,1.0,6.0,66,0.00,,,0.00,Weather View 32 v70,2013-02-03 20:44:00,
2013-02-03 15:49:00,25.0,14.9,29.80,WSW,248,0.0,5.0,65,0.00,,,0.00,Weather View 32 v70,2013-02-03 20:49:00,
2013-02-03 15:54:00,25.0,14.9,29.79,WNW,292,0.0,5.0,65,0.00,,,0.00,Weather View 32 v70,2013-02-03 20:54:00,
2013-02-03 16:04:00,25.0,14.9,29.80,South,180,3.0,3.0,65,0.00,,,0.00,Weather View 32 v70,2013-02-03 21:04:00,
2013-02-03 16:09:00,24.0,14.3,29.79,WNW,292,1.0,3.0,66,0.00,,,0.00,Weather View 32 v70,2013-02-03 21:09:00,
2013-02-03 16:19:00,24.0,13.9,29.79,SW,225,0.0,3.0,65,0.00,,,0.00,Weather View 32 v70,2013-02-03 21:19:00,
2013-02-03 16:24:00,24.0,14.3,29.79,West,270,0.0,3.0,66,0.00,,,0.00,Weather View 32 v70,2013-02-03 21:24:00,
2013-02-03 16:29:00,24.0,14.3,29.79,SSW,202,0.0,3.0,66,0.00,,,0.00,Weather View 32 v70,2013-02-03 21:29:00,
2013-02-03 16:39:00,24.0,14.3,29.79,SW,225,0.0,3.0,66,0.00,,,0.00,Weather View 32 v70,2013-02-03 21:39:00,
2013-02-03 16:44:00,24.0,14.6,29.79,SSE,158,1.0,3.0,67,0.00,,,0.00,Weather View 32 v70,2013-02-03 21:44:00,
2013-02-03 16:51:00,24.0,14.6,29.79,SSW,202,0.0,3.0,67,0.00,,,0.00,Weather View 32 v70,2013-02-03 21:51:00,
2013-02-03 16:59:00,24.0,14.6,29.78,SW,225,1.0,3.0,67,0.00,,,0.00,Weather View 32 v70,2013-02-03 21:59:00,
2013-02-03 17:09:00,24.0,15.0,29.78,SW,225,1.0,3.0,68,0.00,,,0.00,Weather View 32 v70,2013-02-03 22:09:00,
2013-02-03 17:19:00,24.0,15.3,29.78,South,180,0.0,3.0,69,0.00,,,0.00,Weather View 32 v70,2013-02-03 22:19:00,
2013-02-03 17:29:00,24.0,15.6,29.78,SE,135,0.0,3.0,70,0.00,,,0.00,Weather View 32 v70,2013-02-03 22:29:00,
2013-02-03 17:39:00,24.0,15.6,29.78,WNW,292,0.0,3.0,70,0.00,,,0.00,Weather View 32 v70,2013-02-03 22:39:00,
2013-02-03 17:44:00,24.0,15.6,29.77,WSW,248,1.0,3.0,70,0.00,,,0.00,Weather View 32 v70,2013-02-03 22:44:00,
2013-02-03 17:52:00,24.0,15.3,29.77,West,270,0.0,3.0,69,0.00,,,0.00,Weather View 32 v70,2013-02-03 22:52:00,
2013-02-03 17:59:00,24.0,15.3,29.77,South,180,2.0,3.0,69,0.00,,,0.00,Weather View 32 v70,2013-02-03 22:59:00,
2013-02-03 18:09:00,24.0,15.3,29.76,WNW,292,1.0,3.0,69,0.00,,,0.00,Weather View 32 v70,2013-02-03 23:09:00,
2013-02-03 18:14:00,24.0,15.6,29.76,South,180,1.0,3.0,70,0.00,,,0.00,Weather View 32 v70,2013-02-03 23:14:00,
2013-02-03 18:24:00,24.0,15.6,29.76,West,270,0.0,3.0,70,0.00,,,0.00,Weather View 32 v70,2013-02-03 23:24:00,
2013-02-03 18:29:00,24.0,15.6,29.75,WSW,248,0.0,3.0,70,0.00,,,0.00,Weather View 32 v70,2013-02-03 23:29:00,
2013-02-03 18:39:00,24.0,15.6,29.76,WSW,248,0.0,3.0,70,0.00,,,0.00,Weather View 32 v70,2013-02-03 23:39:00,
2013-02-03 18:49:00,24.0,15.6,29.76,SW,225,1.0,3.0,70,0.00,,,0.00,Weather View 32 v70,2013-02-03 23:49:00,
2013-02-03 18:54:00,23.0,14.7,29.77,West,270,1.0,3.0,70,0.00,,,0.00,Weather View 32 v70,2013-02-03 23:54:00,
2013-02-03 19:04:00,23.0,15.0,29.77,West,270,1.0,3.0,71,0.00,,,0.00,Weather View 32 v70,2013-02-04 00:04:00,
2013-02-03 19:14:00,23.0,15.0,29.77,SSE,158,1.0,3.0,71,0.00,,,0.00,Weather View 32 v70,2013-02-04 00:14:00,
2013-02-03 19:19:00,23.0,15.0,29.77,West,270,0.0,3.0,71,0.00,,,0.00,Weather View 32 v70,2013-02-04 00:19:00,
2013-02-03 19:29:00,23.0,15.0,29.77,WNW,292,0.0,3.0,71,0.00,,,0.00,Weather View 32 v70,2013-02-04 00:29:00,
2013-02-03 19:39:00,23.0,15.0,29.77,WNW,292,0.0,3.0,71,0.00,,,0.00,Weather View 32 v70,2013-02-04 00:39:00,
2013-02-03 19:49:00,23.0,15.0,29.78,South,180,1.0,3.0,71,0.00,,,0.00,Weather View 32 v70,2013-02-04 00:49:00,
2013-02-03 19:59:00,23.0,15.0,29.77,WSW,248,1.0,3.0,71,0.00,,,0.00,Weather View 32 v70,2013-02-04 00:59:00,
2013-02-03 20:04:00,23.0,15.0,29.77,SW,225,0.0,3.0,71,0.00,,,0.00,Weather View 32 v70,2013-02-04 01:04:00,
2013-02-03 20:14:00,23.0,15.0,29.77,WSW,248,0.0,2.0,71,0.00,,,0.00,Weather View 32 v70,2013-02-04 01:14:00,
2013-02-03 20:24:00,23.0,15.0,29.77,West,270,1.0,3.0,71,0.00,,,0.00,Weather View 32 v70,2013-02-04 01:24:00,
2013-02-03 20:29:00,23.0,15.3,29.77,WSW,248,1.0,3.0,72,0.00,,,0.00,Weather View 32 v70,2013-02-04 01:29:00,
2013-02-03 20:34:00,23.0,15.3,29.77,WNW,292,0.0,3.0,72,0.00,,,0.00,Weather View 32 v70,2013-02-04 01:34:00,
2013-02-03 20:44:00,23.0,15.6,29.77,WSW,248,2.0,3.0,73,0.00,,,0.00,Weather View 32 v70,2013-02-04 01:44:00,
2013-02-03 20:53:00,23.0,15.6,29.76,WSW,248,0.0,3.0,73,0.00,,,0.00,Weather View 32 v70,2013-02-04 01:53:00,
2013-02-03 20:59:00,23.0,16.0,29.76,WSW,248,0.0,3.0,74,0.00,,,0.00,Weather View 32 v70,2013-02-04 01:59:00,
2013-02-03 21:04:00,23.0,16.3,29.76,SW,225,0.0,3.0,75,0.00,,,0.00,Weather View 32 v70,2013-02-04 02:04:00,
2013-02-03 21:14:00,23.0,16.3,29.75,WSW,248,1.0,3.0,75,0.00,,,0.00,Weather View 32 v70,2013-02-04 02:14:00,
2013-02-03 21:24:00,23.0,16.3,29.75,SW,225,0.0,4.0,75,0.00,,,0.00,Weather View 32 v70,2013-02-04 02:24:00,
2013-02-03 21:34:00,22.0,15.3,29.75,WNW,292,1.0,4.0,75,0.00,,,0.00,Weather View 32 v70,2013-02-04 02:34:00,
2013-02-03 21:39:00,22.0,15.6,29.75,West,270,0.0,4.0,76,0.00,,,0.00,Weather View 32 v70,2013-02-04 02:39:00,
2013-02-03 21:49:00,22.0,15.6,29.74,WNW,292,0.0,4.0,76,0.00,,,0.00,Weather View 32 v70,2013-02-04 02:49:00,
2013-02-03 21:59:00,22.0,15.3,29.75,SW,225,1.0,4.0,75,0.00,,,0.00,Weather View 32 v70,2013-02-04 02:59:00,
2013-02-03 22:04:00,22.0,15.3,29.74,SSE,158,0.0,4.0,75,0.00,,,0.00,Weather View 32 v70,2013-02-04 03:04:00,
2013-02-03 22:14:00,22.0,15.6,29.74,WSW,248,1.0,4.0,76,0.00,,,0.00,Weather View 32 v70,2013-02-04 03:14:00,
2013-02-03 22:19:00,22.0,15.3,29.73,WNW,292,1.0,4.0,75,0.00,,,0.00,Weather View 32 v70,2013-02-04 03:19:00,
2013-02-03 22:29:00,22.0,15.3,29.73,SSW,202,1.0,3.0,75,0.00,,,0.00,Weather View 32 v70,2013-02-04 03:29:00,
2013-02-03 22:39:00,22.0,15.6,29.72,SW,225,0.0,3.0,76,0.00,,,0.00,Weather View 32 v70,2013-02-04 03:39:00,
2013-02-03 22:44:00,22.0,15.6,29.73,WSW,248,1.0,3.0,76,0.00,,,0.00,Weather View 32 v70,2013-02-04 03:44:00,
2013-02-03 22:49:00,22.0,15.9,29.72,WNW,292,5.0,5.0,77,0.00,,,0.00,Weather View 32 v70,2013-02-04 03:49:00,
2013-02-03 22:55:00,22.0,15.9,29.72,SW,225,0.0,5.0,77,0.00,,,0.00,Weather View 32 v70,2013-02-04 03:55:00,
2013-02-03 23:04:00,22.0,15.9,29.72,WSW,248,2.0,5.0,77,0.00,,,0.00,Weather View 32 v70,2013-02-04 04:04:00,
2013-02-03 23:14:00,22.0,16.2,29.72,West,270,1.0,5.0,78,0.00,,,0.00,Weather View 32 v70,2013-02-04 04:14:00,
2013-02-03 23:24:00,22.0,16.5,29.71,WNW,292,0.0,5.0,79,0.00,,,0.00,Weather View 32 v70,2013-02-04 04:24:00,
2013-02-03 23:29:00,22.0,16.5,29.71,WNW,292,0.0,5.0,79,0.00,,,0.00,Weather View 32 v70,2013-02-04 04:29:00,
2013-02-03 23:34:00,22.0,16.5,29.71,West,270,0.0,5.0,79,0.00,,,0.00,Weather View 32 v70,2013-02-04 04:34:00,
2013-02-03 23:41:00,22.0,16.5,29.71,West,270,0.0,5.0,79,0.00,,,0.00,Weather View 32 v70,2013-02-04 04:41:00,
2013-02-03 23:49:00,21.0,15.8,29.70,WSW,248,0.0,5.0,80,0.00,,,0.00,Weather View 32 v70,2013-02-04 04:49:00,
2013-02-03 23:54:00,21.0,16.1,29.70,WNW,292,0.0,3.0,81,0.00,,,0.00,Weather View 32 v70,2013-02-04 04:54:00,